Location: ???????????
(38.2661°N, 23.2350°E)
Time: 11:57:56
(UTC+00:00)

Cosmos 2322 Rocket - Visible Passes

Search period start: 13 April 2024 00:00
Search period end: 23 April 2024 00:00
Orbit: 834 x 849 km, 71.0° (Epoch: 13 April)

Date Brightness Start Highest point End Pass type
(mag) Time Alt. Az. Time Alt. Az. Time Alt. Az.
13 Apr 4.0 00:34:33 21° NNW 00:34:33 21° NNW 00:37:14 10° N visible
13 Apr 4.8 22:37:45 13° NE 22:37:45 13° NE 22:38:25 10° NE visible
14 Apr 4.1 00:19:32 21° NNW 00:19:32 21° NNW 00:22:05 10° N visible
14 Apr 4.8 22:22:42 12° NE 22:22:42 12° NE 22:23:10 10° NE visible
15 Apr 4.2 00:04:29 21° NNW 00:04:29 21° NNW 00:06:56 10° N visible
15 Apr 4.9 22:07:38 11° NE 22:07:38 11° NE 22:07:54 10° NE visible
15 Apr 4.2 23:49:24 21° NNW 23:49:24 21° NNW 23:51:47 10° N visible
16 Apr 4.9 21:52:31 10° NE 21:52:31 10° NE 21:52:38 10° NE visible
16 Apr 4.2 23:34:18 22° NNW 23:34:18 22° NNW 23:36:37 10° N visible
17 Apr 4.3 23:19:10 22° NNW 23:19:10 22° NNW 23:21:27 10° N visible
18 Apr 4.3 23:03:59 22° N 23:03:59 22° N 23:06:18 10° N visible
19 Apr 4.2 22:48:47 23° N 22:48:47 23° N 22:51:07 10° N visible
20 Apr 4.2 22:33:32 24° N 22:33:32 24° N 22:35:57 10° N visible
21 Apr 4.1 22:18:14 25° N 22:18:14 25° N 22:20:46 10° N visible
22 Apr 4.0 22:02:54 27° N 22:02:54 27° N 22:05:35 10° N visible
